Date String (YYYY-MM-DD hh:mm:ss) UTC,Instrument flags,Ambient pressure (hPa),Sample flow (lpm),Bypass flow (lpm),Sample temperature (°C),Ambient temperature (°C),ASC tube jacket temperature (°C),LED temperature (°C),Box temperature (°C),Sample RH (%),Span deviation,Mass concentration (μg/m³),Mass concentration (μg/m³),Mass concentration (μg/m³)
DateTimeUTC,F1_M11,P_M11,Q1_M11,Q2_M11,T1_M11,T2_M11,T3_M11,T4_M11,T5_M11,U1_M11,ZSPAN_M11,X0_M11,X2_M11,X1_M11
2023-04-10 09:00:00,,0838.4,5.00,0.00,25.2,23.4,00.0,33.6,26.7,11.6,0000.0,0010.52,0004.20,0002.52
2023-04-10 09:01:00,,0838.4,5.00,0.00,25.2,23.4,00.0,33.6,26.7,11.6,0000.0,0010.57,0004.19,0002.50
2023-04-10 09:02:00,,0838.3,5.00,0.00,25.2,23.4,00.0,33.6,26.7,11.6,0000.0,0010.49,0004.19,0002.49
2023-04-10 09:03:00,,0838.3,5.01,0.00,25.2,23.4,00.0,33.6,26.6,11.7,0000.0,0010.11,0004.22,0002.49
2023-04-10 09:04:00,,0838.3,5.00,0.00,25.2,23.3,00.0,33.6,26.6,11.7,0000.0,0010.02,0004.21,0002.49
2023-04-10 09:05:00,,0838.3,5.01,0.00,25.2,23.3,00.0,33.6,26.7,11.8,0000.0,0009.92,0004.18,0002.50
2023-04-10 09:06:00,,0838.3,5.00,0.00,25.2,23.3,00.0,33.6,26.7,11.8,0000.0,0009.62,0004.15,0002.52
2023-04-10 09:07:00,,0838.2,5.00,0.00,25.1,23.3,00.0,33.5,26.6,11.7,0000.0,0009.50,0004.11,0002.50
2023-04-10 09:08:00,,0838.3,5.00,0.00,25.1,23.3,00.0,33.5,26.6,11.8,0000.0,0008.98,0004.14,0002.51
2023-04-10 09:09:00,,0838.3,4.99,0.00,25.1,23.3,00.0,33.5,26.6,11.9,0000.0,0008.93,0004.13,0002.49
2023-04-10 09:10:00,,0838.3,5.00,0.00,25.1,23.3,00.0,33.5,26.6,12.0,0000.0,0008.83,0004.13,0002.47
2023-04-10 09:11:00,,0838.3,5.00,0.00,25.1,23.3,00.0,33.5,26.5,11.9,0000.0,0008.72,0004.12,0002.46
2023-04-10 09:12:00,,0838.3,5.00,0.00,25.1,23.3,00.0,33.5,26.6,11.9,0000.0,0009.14,0004.07,0002.47
2023-04-10 09:13:00,,0838.3,5.01,0.00,25.1,23.2,00.0,33.5,26.6,11.9,0000.0,0009.31,0004.10,0002.48
2023-04-10 09:14:00,,0838.3,5.00,0.00,25.0,23.2,00.0,33.5,26.6,12.0,0000.0,0009.75,0004.13,0002.48
2023-04-10 09:15:00,,0838.3,5.01,0.00,25.0,23.2,00.0,33.5,26.5,12.1,0000.0,0010.00,0004.14,0002.49
2023-04-10 09:16:00,,0838.2,5.01,0.00,25.0,23.2,00.0,33.5,26.5,12.1,0000.0,0009.98,0004.12,0002.49
2023-04-10 09:17:00,,0838.3,5.00,0.00,25.0,23.2,00.0,33.4,26.5,12.0,0000.0,0010.15,0004.16,0002.48
2023-04-10 09:18:00,,0838.3,4.99,0.00,25.0,23.2,00.0,33.4,26.5,12.1,0000.0,0010.26,0004.20,0002.49
2023-04-10 09:19:00,,0838.1,5.00,0.00,25.0,23.1,00.0,33.4,26.5,12.2,0000.0,0010.26,0004.19,0002.49
2023-04-10 09:20:00,,0838.2,5.00,0.00,25.0,23.1,00.0,33.4,26.5,12.1,0000.0,0010.08,0004.12,0002.49
2023-04-10 09:21:00,,0838.2,5.00,0.00,25.0,23.1,00.0,33.4,26.5,12.3,0000.0,0010.20,0004.14,0002.50
2023-04-10 09:22:00,,0838.2,5.00,0.00,24.9,23.1,00.0,33.4,26.5,12.4,0000.0,0010.22,0004.14,0002.49
2023-04-10 09:23:00,,0838.2,5.00,0.00,24.9,23.1,00.0,33.4,26.5,12.5,0000.0,0009.84,0004.17,0002.49
2023-04-10 09:24:00,,0838.2,5.00,0.00,24.9,23.1,00.0,33.3,26.4,12.4,0000.0,0009.66,0004.19,0002.47
2023-04-10 09:25:00,,0838.2,5.00,0.00,24.9,23.1,00.0,33.3,26.4,12.5,0000.0,0009.04,0004.12,0002.45
2023-04-10 09:26:00,,0838.2,5.01,0.00,24.9,23.1,00.0,33.3,26.4,12.5,0000.0,0008.68,0004.06,0002.43
2023-04-10 09:27:00,,0838.2,5.00,0.00,24.9,23.0,00.0,33.3,26.4,12.2,0000.0,0008.98,0004.07,0002.41
2023-04-10 09:28:00,,0838.2,5.00,0.00,24.9,23.0,00.0,33.3,26.4,12.1,0000.0,0009.11,0004.05,0002.41
2023-04-10 09:29:00,,0838.2,5.01,0.00,24.9,23.0,00.0,33.3,26.3,12.1,0000.0,0009.21,0004.04,0002.39
2023-04-10 09:30:00,,0838.2,5.00,0.00,24.8,23.0,00.0,33.3,26.3,12.2,0000.0,0009.23,0004.05,0002.39
2023-04-10 09:31:00,,0838.2,5.00,0.00,24.8,23.0,00.0,33.2,26.3,12.4,0000.0,0009.85,0004.11,0002.40
2023-04-10 09:32:00,,0838.2,5.00,0.00,24.8,23.0,00.0,33.2,26.3,12.4,0000.0,0010.18,0004.12,0002.41
2023-04-10 09:33:00,,0838.2,5.00,0.00,24.8,22.9,00.0,33.2,26.3,12.5,0000.0,0010.31,0004.17,0002.43
2023-04-10 09:34:00,,0838.2,5.00,0.00,24.8,22.9,00.0,33.2,26.3,12.6,0000.0,0010.27,0004.15,0002.44
2023-04-10 09:35:00,,0838.1,5.00,0.00,24.8,22.9,00.0,33.2,26.3,12.7,0000.0,0010.65,0004.17,0002.45
2023-04-10 09:36:00,,0838.1,5.00,0.00,24.8,22.9,00.0,33.2,26.3,12.7,0000.0,0011.36,0004.20,0002.46
2023-04-10 09:37:00,,0838.2,4.99,0.00,24.7,22.9,00.0,33.2,26.2,12.8,0000.0,0011.49,0004.22,0002.46
2023-04-10 09:38:00,,0838.2,5.00,0.00,24.7,22.9,00.0,33.2,26.2,12.8,0000.0,0011.20,0004.20,0002.48
2023-04-10 09:39:00,,0838.2,5.00,0.00,24.7,22.9,00.0,33.1,26.2,12.8,0000.0,0011.19,0004.22,0002.48
2023-04-10 09:40:00,,0838.2,5.01,0.00,24.7,22.9,00.0,33.1,26.1,12.9,0000.0,0011.09,0004.21,0002.47
2023-04-10 09:41:00,,0838.2,5.01,0.00,24.7,22.8,00.0,33.1,26.1,12.9,0000.0,0010.95,0004.17,0002.47
2023-04-10 09:42:00,,0838.2,4.98,0.00,24.7,22.8,00.0,33.1,26.1,12.9,0000.0,0010.24,0004.09,0002.47
2023-04-10 09:43:00,,0838.2,5.00,0.00,24.7,22.8,00.0,33.1,26.1,12.9,0000.0,0009.96,0004.09,0002.47
2023-04-10 09:44:00,,0838.2,5.01,0.00,24.6,22.8,00.0,33.1,26.1,13.0,0000.0,0009.68,0004.00,0002.45
2023-04-10 09:45:00,,0838.2,5.00,0.00,24.6,22.8,00.0,33.1,26.1,13.0,0000.0,0009.59,0003.98,0002.44
2023-04-10 09:46:00,,0838.2,5.01,0.00,24.6,22.8,00.0,33.1,26.1,13.1,0000.0,0009.23,0003.95,0002.44
2023-04-10 09:47:00,,0838.2,5.00,0.00,24.6,22.8,00.0,33.1,26.1,13.1,0000.0,0008.69,0003.91,0002.43
2023-04-10 09:48:00,,0838.2,4.99,0.00,24.6,22.8,00.0,33.0,26.1,13.1,0000.0,0008.84,0003.92,0002.44
2023-04-10 09:49:00,,0838.2,4.99,0.00,24.6,22.8,00.0,33.0,26.1,13.1,0000.0,0009.26,0003.93,0002.45
2023-04-10 09:50:00,,0838.2,4.99,0.00,24.6,22.8,00.0,33.0,26.1,13.1,0000.0,0009.64,0003.91,0002.45
2023-04-10 09:51:00,,0838.2,5.00,0.00,24.6,22.8,00.0,33.0,26.1,13.0,0000.0,0009.58,0003.89,0002.47
2023-04-10 09:52:00,,0838.2,5.01,0.00,24.6,22.8,00.0,33.0,26.1,13.0,0000.0,0010.00,0003.90,0002.49
2023-04-10 09:53:00,,0838.2,5.00,0.00,24.6,22.8,00.0,33.0,26.0,13.0,0000.0,0010.33,0003.99,0002.50
2023-04-10 09:54:00,,0838.2,4.99,0.00,24.6,22.7,00.0,33.0,26.0,13.0,0000.0,0010.42,0004.01,0002.50
2023-04-10 09:55:00,,0838.2,5.00,0.00,24.5,22.7,00.0,33.0,26.0,12.9,0000.0,0010.55,0004.05,0002.51
2023-04-10 09:56:00,,0838.2,5.00,0.00,24.5,22.7,00.0,33.0,26.0,12.9,0000.0,0010.68,0004.08,0002.54
2023-04-10 09:57:00,,0838.1,4.99,0.00,24.5,22.7,00.0,32.9,26.0,12.9,0000.0,0010.67,0004.08,0002.54
2023-04-10 09:58:00,,0838.2,5.00,0.00,24.5,22.7,00.0,32.9,26.0,12.9,0000.0,0010.70,0004.10,0002.54
2023-04-10 09:59:00,,0838.1,5.00,0.00,24.5,22.7,00.0,32.9,26.0,12.9,0000.0,0010.64,0004.11,0002.53
